Weather History for Cody, WY

Change the Weather History Date:

Thursday, January 24, 2013

  Actual Average Record
Temperature  
Mean Temperature 45 °F -  
Max Temperature 51 °F 38 °F 63 °F (1968)
Min Temperature 39 °F 17 °F -30 °F (1949)
Degree Days  
Heating Degree Days 20    
Moisture  
Dew Point 19 °F    
Average Humidity 35    
Maximum Humidity 46    
Minimum Humidity 20    
Precipitation  
Precipitation 0.00 in - - ()
Sea Level Pressure  
Sea Level Pressure 29.98 in    
Wind  
Wind Speed 13 mph (WSW)    
Max Wind Speed 30 mph    
Max Gust Speed 41 mph    
Visibility 10 miles    
Events      
Averages and records for this station are not official NWS values.
T = Trace of Precipitation, MM = Missing Value Source: NWS Daily Summary

Daily Weather History Graph

Daily Weather History Graph

Search for Another Location

Airport:

Trip Planner

Search our weather history database for the weather conditions in past years. The results will help you decide how hot, cold, wet, or windy it might be!

Date:

Astronomy

Jan. 24, 2013 Rise Set
Actual Time 7:42 AM MST 5:14 PM MST
Civil Twilight 7:10 AM MST 5:46 PM MST
Nautical Twilight 6:35 AM MST 6:21 PM MST
Astronomical Twilight 6:01 AM MST 6:56 PM MST
Moon 3:18 PM MST (1/24) 5:43 AM MST (1/24)
Length of Visible Light 10h 35m
Length of Day
9h 32m
Waxing Gibbous, 95% of the Moon is Illuminated
Jan 24
Waxing Gibbous
Jan 26
Full
Feb 3
Last Quarter
Feb 10
New
Feb 17
First Quarter

Hourly Weather History & Observations

Time (MST) Temp. Windchill Dew Point Humidity Pressure Visibility Wind Dir Wind Speed Gust Speed Precip Events Conditions
12:15 AM 46.4 °F 40.4 °F 8.6 °F 22% 29.95 in 10.0 mi WSW 13.8 mph 21.9 mph N/A   Clear
12:35 AM 44.6 °F 36.6 °F 8.6 °F 23% 29.95 in 10.0 mi SW 19.6 mph - N/A   Clear
12:55 AM 44.6 °F 36.9 °F 8.6 °F 23% 29.95 in 10.0 mi SSW 18.4 mph - N/A   Clear
1:15 AM 42.8 °F 35.1 °F 10.4 °F 27% 29.95 in 10.0 mi SW 16.1 mph - N/A   Clear
1:35 AM 42.8 °F 37.0 °F 8.6 °F 25% 29.95 in 10.0 mi SSW 10.4 mph - N/A   Clear
1:55 AM 41.0 °F 35.2 °F 10.4 °F 29% 29.95 in 10.0 mi SW 9.2 mph - N/A   Clear
2:15 AM 42.8 °F 37.0 °F 10.4 °F 27% 29.94 in 10.0 mi South 10.4 mph - N/A   Clear
2:35 AM 39.2 °F 33.6 °F 8.6 °F 28% 29.94 in 10.0 mi South 8.1 mph - N/A   Clear
2:55 AM 39.2 °F 32.5 °F 8.6 °F 28% 29.93 in 10.0 mi South 10.4 mph - N/A   Clear
3:15 AM 42.8 °F 39.3 °F 8.6 °F 25% 29.92 in 10.0 mi WSW 5.8 mph - N/A   Clear
3:35 AM 44.6 °F - 10.4 °F 25% 29.92 in 10.0 mi Calm Calm - N/A   Partly Cloudy
3:55 AM 46.4 °F 42.4 °F 8.6 °F 22% 29.91 in 10.0 mi South 8.1 mph - N/A   Partly Cloudy
4:15 AM 46.4 °F 43.5 °F 10.4 °F 23% 29.92 in 10.0 mi WSW 5.8 mph - N/A   Clear
4:35 AM 46.4 °F 43.5 °F 8.6 °F 22% 29.91 in 10.0 mi NNE 5.8 mph - N/A   Partly Cloudy
4:55 AM 46.4 °F 41.9 °F 8.6 °F 22% 29.90 in 10.0 mi ESE 9.2 mph - N/A   Mostly Cloudy
5:15 AM 48.2 °F - 10.4 °F 22% 29.91 in 10.0 mi NNE 10.4 mph - N/A   Overcast
5:35 AM 50.0 °F - 10.4 °F 20% 29.92 in 10.0 mi West 4.6 mph 19.6 mph N/A   Overcast
5:55 AM 50.0 °F - 10.4 °F 20% 29.92 in 10.0 mi WSW 5.8 mph - N/A   Overcast
6:15 AM 48.2 °F - 12.2 °F 24% 29.92 in 10.0 mi SSE 5.8 mph - N/A   Overcast
6:35 AM 48.2 °F - 15.8 °F 27% 29.92 in 10.0 mi West 8.1 mph 17.3 mph N/A   Overcast
6:55 AM 48.2 °F - 17.6 °F 30% 29.93 in 10.0 mi WSW 8.1 mph 26.5 mph N/A   Mostly Cloudy
7:15 AM 48.2 °F - 17.6 °F 30% 29.92 in 10.0 mi SW 18.4 mph 28.8 mph N/A   Partly Cloudy
7:35 AM 48.2 °F - 17.6 °F 30% 29.89 in 10.0 mi SW 28.8 mph 38.0 mph N/A   Clear
7:55 AM 46.4 °F 37.2 °F 19.4 °F 34% 29.89 in 10.0 mi WSW 29.9 mph 41.4 mph N/A   Clear
8:15 AM 46.4 °F 38.1 °F 21.2 °F 37% 29.90 in 10.0 mi WSW 24.2 mph 33.4 mph N/A   Clear
8:35 AM 44.6 °F 37.2 °F 21.2 °F 39% 29.91 in 10.0 mi WSW 17.3 mph 36.8 mph N/A   Clear
8:55 AM 46.4 °F 38.7 °F 21.2 °F 37% 29.91 in 10.0 mi WSW 20.7 mph 34.5 mph N/A   Clear
9:15 AM 46.4 °F 38.3 °F 23.0 °F 40% 29.92 in 10.0 mi WSW 23.0 mph 32.2 mph N/A   Clear
9:35 AM 46.4 °F 38.7 °F 23.0 °F 40% 29.93 in 10.0 mi WSW 20.7 mph 26.5 mph N/A   Clear
9:55 AM 48.2 °F - 21.2 °F 34% 29.93 in 10.0 mi WSW 21.9 mph 27.6 mph N/A   Clear
10:15 AM 48.2 °F - 23.0 °F 37% 29.94 in 10.0 mi WSW 16.1 mph 32.2 mph N/A   Clear
10:35 AM 46.4 °F 38.5 °F 23.0 °F 40% 29.94 in 10.0 mi SW 21.9 mph 28.8 mph N/A   Clear
10:55 AM 48.2 °F - 23.0 °F 37% 29.95 in 10.0 mi SW 18.4 mph 27.6 mph N/A   Clear
11:15 AM 48.2 °F - 24.8 °F 40% 29.95 in 10.0 mi WSW 13.8 mph 27.6 mph N/A   Clear
11:35 AM 48.2 °F - 24.8 °F 40% 29.96 in 10.0 mi SW 20.7 mph 34.5 mph N/A   Clear
11:55 AM 48.2 °F - 24.8 °F 40% 29.95 in 10.0 mi South 10.4 mph 32.2 mph N/A   Scattered Clouds
12:15 PM 48.2 °F - 24.8 °F 40% 29.95 in 10.0 mi SSE 13.8 mph 25.3 mph N/A   Overcast
12:35 PM 48.2 °F - 24.8 °F 40% 29.95 in 10.0 mi ESE 13.8 mph 23.0 mph N/A   Overcast
12:55 PM 50.0 °F - 23.0 °F 35% 29.94 in 10.0 mi ESE 6.9 mph - N/A   Mostly Cloudy
1:15 PM 51.8 °F - 24.8 °F 35% 29.94 in 10.0 mi NW 17.3 mph 24.2 mph N/A   Mostly Cloudy
1:35 PM 51.8 °F - 24.8 °F 35% 29.94 in 10.0 mi WNW 13.8 mph 23.0 mph N/A   Scattered Clouds
1:55 PM 50.0 °F - 24.8 °F 37% 29.94 in 10.0 mi WNW 15.0 mph 26.5 mph N/A   Scattered Clouds
2:35 PM 50.0 °F - 24.8 °F 37% 29.94 in 10.0 mi West 9.2 mph 26.5 mph N/A   Clear
2:55 PM 50.0 °F - 24.8 °F 37% 29.98 in 10.0 mi NW 12.7 mph 27.6 mph N/A   Partly Cloudy
3:55 PM 48.2 °F - 24.8 °F 40% 30.00 in 10.0 mi West 13.8 mph 24.2 mph N/A   Clear
4:35 PM 46.4 °F 40.1 °F 24.8 °F 43% 30.01 in 10.0 mi West 15.0 mph 29.9 mph N/A   Partly Cloudy
4:55 PM 44.6 °F 36.6 °F 24.8 °F 46% 30.03 in 10.0 mi West 19.6 mph 29.9 mph N/A   Mostly Cloudy
5:15 PM 44.6 °F 39.7 °F 23.0 °F 43% 30.05 in 10.0 mi West 9.2 mph 21.9 mph N/A   Mostly Cloudy
5:35 PM 44.6 °F 38.1 °F 23.0 °F 43% 30.04 in 10.0 mi NW 13.8 mph 23.0 mph N/A   Scattered Clouds
5:55 PM 44.6 °F 38.4 °F 23.0 °F 43% 30.04 in 10.0 mi West 12.7 mph 24.2 mph N/A   Clear
6:15 PM 44.6 °F 36.4 °F 23.0 °F 43% 30.04 in 10.0 mi West 20.7 mph 28.8 mph N/A   Clear
6:55 PM 42.8 °F 37.0 °F 23.0 °F 46% 30.07 in 10.0 mi West 10.4 mph 20.7 mph N/A   Clear
7:15 PM 42.8 °F 37.0 °F 21.2 °F 42% 30.08 in 10.0 mi West 10.4 mph 16.1 mph N/A   Clear
7:35 PM 42.8 °F 38.0 °F 21.2 °F 42% 30.09 in 10.0 mi WSW 8.1 mph 16.1 mph N/A   Clear
7:55 PM 42.8 °F 36.6 °F 21.2 °F 42% 30.09 in 10.0 mi WSW 11.5 mph 17.3 mph N/A   Clear
8:15 PM 42.8 °F 37.0 °F 21.2 °F 42% 30.09 in 10.0 mi West 10.4 mph 19.6 mph N/A   Clear
8:35 PM 42.8 °F 36.2 °F 21.2 °F 42% 30.09 in 10.0 mi West 12.7 mph 21.9 mph N/A   Clear
8:55 PM 42.8 °F 34.8 °F 23.0 °F 46% 30.09 in 10.0 mi WNW 17.3 mph 25.3 mph N/A   Clear
9:35 PM 42.8 °F 37.5 °F 23.0 °F 46% 30.08 in 10.0 mi West 9.2 mph 21.9 mph N/A   Clear
9:55 PM 42.8 °F 35.1 °F 23.0 °F 46% 30.09 in 10.0 mi WNW 16.1 mph 23.0 mph N/A   Clear
10:15 PM 42.8 °F 35.4 °F 21.2 °F 42% 30.08 in 10.0 mi West 15.0 mph 28.8 mph N/A   Clear
10:35 PM 42.8 °F 35.8 °F 23.0 °F 46% 30.09 in 10.0 mi West 13.8 mph 24.2 mph N/A   Clear
10:55 PM 42.8 °F 35.4 °F 21.2 °F 42% 30.10 in 10.0 mi West 15.0 mph 21.9 mph N/A   Clear
11:15 PM 42.8 °F 36.6 °F 21.2 °F 42% 30.10 in 10.0 mi WNW 11.5 mph 18.4 mph N/A   Clear
11:35 PM 42.8 °F 35.1 °F 21.2 °F 42% 30.09 in 10.0 mi WNW 16.1 mph 24.2 mph N/A   Clear
11:55 PM 42.8 °F 35.8 °F 21.2 °F 42% 30.10 in 10.0 mi WNW 13.8 mph 23.0 mph N/A   Clear